C/2024 G6 ( ATLAS )

Japanese version
Home page
Updated on January 31, 2026

---------------------------------------------------------------------

* Profile

Discovery Date April 10, 2024
Magnitude 19.1 mag
Discoverer Asteroid Terrestrial-Impact Last Alert System (ATLAS) search program

* Pictures

* Orbital Elements

Epoch 2025 May 5.0 TT = JDT 2460800.5
T 2026 Feb. 20.77331 TT                                 Pike
q   6.4297508            (2000.0)            P               Q
z  -0.0003461      Peri.   23.44207     -0.49003055     -0.30974373
 +/-0.0000029      Node   250.95188     -0.87169536     +0.16966680
e   1.0022255      Incl.  120.45605     -0.00415380     +0.93555972
From 472 observations 2024 Apr. 10-2025 Aug. 1, mean residual 0".5.

* Magnitudes Graph

        m1 = -3.5 + 5 log d + 20.0 log r

---------------------------------------------------------------------

The orbital elements are published on M.P.E.C. 2025-P113.
The magnitudes graphs are made with Comet for Windows.

---------------------------------------------------------------------

Copyright(C) Seiichi Yoshida (comet@aerith.net). All rights reserved.